Weather Roundup
Issued by NWS Corpus Christi, TX

Home | Current Version | Previous Version | Text Only | Print | Product List | Glossary On
Versions: 1 2 3 4 5 6 7 8 9 10 11 12 13 14 15 16 17 18 19 20 21 22 23 24 25 26 27 28 29 30 31 32 33 34 35 36 37 38 39 40 41 42 43 44 45 46 47 48 49 50
000
ASUS44 KCRP 191710
HRRCRP

SOUTH TEXAS REGIONAL WEATHER ROUNDUP
NATIONAL WEATHER SERVICE CORPUS CHRISTI TX
1200 PM CDT FRI SEP 19 2014


TXZ229>244-191800-
...CORPUS CHRISTI AREA OBSERVATIONS...

CITY           SKY/WX    TMP DP  RH WIND       PRES   REMARKS
CORPUS CHRISTI PTSUNNY   89  74  60 W5        29.86F HX  98
NAS CORPUS CHR PTSUNNY   88  80  77 E10       29.86F HX 104
ROCKPORT       MOSUNNY   85  75  72 SE7       29.87F HX  93
KINGSVILLE NAS PTSUNNY   87  78  74 S6        29.86F HX 100
ALICE          MOSUNNY   87  75  67 SE5       29.87S HX  96
FALFURRIAS     CLOUDY   N/A N/A N/A S6        29.86F
$$

...VICTORIA AREA OBSERVATIONS...

CITY           SKY/WX    TMP DP  RH WIND       PRES   REMARKS
VICTORIA       MOSUNNY   86  78  77 NE16      29.90S HX  98
BEEVILLE       FAIR      87  74  64 CALM      29.88F HX  95
PLEASANTON     PTSUNNY   86  72  63 CALM      29.90S HX  92
SAN ANTONIO    CLOUDY    84  72  67 CALM      29.92S
$$

...LAREDO AREA OBSERVATIONS...

CITY           SKY/WX    TMP DP  RH WIND       PRES   REMARKS
LAREDO         CLOUDY    86  75  69 CALM      29.89F HX  95
COTULLA        MOSUNNY   88  71  57 SE6G18    29.88F HX  94
DEL RIO        CLOUDY    83  74  74 E8        29.88F
MCALLEN        MOSUNNY   87  77  72 S8        29.86S HX  99
HEBBRONVILLE     N/A     85  73  68 S8        29.89F HX  91
$$

...OTHER TEXAS OBSERVATIONS...

CITY           SKY/WX    TMP DP  RH WIND       PRES   REMARKS
BROWNSVILLE    MOSUNNY   90  77  65 S13       29.85F HX 103
HOUSTON        CLOUDY    77  74  90 SE6       29.93F
COL. STATION   CLOUDY    78  73  84 E7        29.94F
AUSTIN         CLOUDY    83  75  77 NE9       29.93S HX  90
WACO           CLOUDY    78  72  81 E7        29.96F
FORT WORTH     PTSUNNY   80  68  66 E9        29.98S
WICHITA FALLS  MOSUNNY   81  68  64 SE13      29.98S
LUBBOCK        CLOUDY    69  66  90 SE10      30.05S
EL PASO        PTSUNNY   74  64  71 W7        30.01F
$$

...MARINE OBSERVATIONS...

STATION/POSITION TIME  SKY/WX   TEMP    WIND        PRES    VSBY  WAVE   SWELL
                                AIR SEA DIR/SP/G                  HT/PER HT/PER
                 (UTC)          (F)     (DEG/KT/KT) (MB)    (MI)  (FT/S) (FT/S)
PORT ARANSAS     1700            81 84   70/  8/ 10 1012.2F
BUOY 90 E PORT A 1700            84 85  180/  4/  6 1012.5R         2/ 5   2/ 5
BUOY 45 SE BAFFI 1700            84 85  190/  6/  8 1010.8F         3/ 6   2/ 6
BUOY 200 E PT IS 1700            85 86  220/ 14/ 16 1011.6F         3/ 5
BUOY 15 E GALVES 1700            77 82  320/  2/  4 1013.4F         2/ 4   2/ 4
$$



USA.gov is the U.S. government's official web portal to all federal, state and local government web resources and services.